Results for 2022 Tour of the White Mountains
If you have a question regarding you results, please email Results
Distance Category
Search for Name or Plate #
PlacePlate #NameDurationCityStateCategorySponsorAgeEvent Pics
12004Abbey White00:53:38IdyllwildCAFun Ride 14View
22133Chris Manny00:53:55GlendaleAZFun Ride 54View
31085Morgan Maloney00:53:59PinetopAZFun Ride 13View
42039Brad Beauchamp00:55:57ScottsdaleAZFun Ride 58View
52058Rodney Kleinman00:57:35PrescottAZFun RideNorthern Az Endodontics12View
62095Angela Gold00:57:59TucsonAZFun Ride 43View
72020Brooklyn Despeaux00:58:18MesaAZFun Ride 10View
82101Nate Warren00:58:46PhoenixAZFun Ride 45View
92100Jacob Warren00:58:47PhoenixAZFun Ride 13View
102098Karen Wood00:59:33Prescott AzAZFun RideOrb Wheel’s44View
112059Rex Kleinman00:59:39PrescottAZFun RideNorthern Az Endodontics11View
122099Jaimie Mccain00:59:49PrescottAZFun RideOrb Wheels43View
132094Alex Wood01:00:28PhoenixAZFun Ride 48View
142023James Bird01:00:37TucsonAZFun Ride 60View
151693Jimmy Nordlolt01:01:53TempeAZFun Ride 28View
162075Robert Frick01:02:11GilbertAZFun Ride 50View
172113Greg St.Clair01:02:22PhoenixAZFun Ride 66View
182073Amy Santoni01:02:28ScottsdaleAZFun Ride 52View
192074Luukas Houttu01:03:07GilbertAZFun Ride 13View
202052Joseph Martinez01:03:46AlbuquerqueNMFun Ride 53View
212077Jack Bass01:05:48PhoenixAZFun Ride 28View
222121Hudson Miner01:05:49ChandlerAZFun Ride 12View
232060Steven Staffo01:05:53ScottsdaleAZFun Ride 51View
242024Stacie Bird01:06:12TucsonAZFun Ride 58View
252056Dennis Baldwin01:06:14PhoenixAZFun Ride 45View
26590Vincent Furrey01:06:23Colorado SpringsCOFun Ride 56View
27591Charley Furrey01:06:26Colorado SpringsCOFun Ride 23View
282031Cindy Weaver01:06:42ChandlerAZFun Ride 49View
292107Christopher A Carnahan01:06:42GlobeAZFun Ride 43View
302122Benjamin Frick01:07:16GilbertAZFun Ride 19View
312130Brian Despeaux01:07:42MesaAZMen's Masters (45 & Over) 51View
322030Billy Weaver01:07:44ChandlerAZFun Ride 10View
332029Jack Lunsford01:07:53GilbertAZFun Ride 13View
342126Cole Schroeder01:08:21TucsonAZFun Ride 7View
352127Bill Decook01:08:23TucsonAZFun Ride 67View
362041David Burkhardt01:08:28PhoenixAZFun RideNone, not brave enough52View
37969Bryan Collins01:08:34PeoriaAZMen's Open 36View
382084Gavin Oplinger01:09:01ChandlerAZFun Ride 14View
392034Summer Ballock01:09:03ChicoCAFun Ride 67View
402033Joseph Roedig01:09:05Green ValleyAZFun RideNone61View
412027Bodie Koogler01:09:11GilbertAZFun RideFoundre Racing9View
422046Sabine Bishop01:09:13WaddellAZFun Ridevelo sonora10View
432011James Mcjunkin01:10:30Park RidgeILFun Ride 61View
442044Richard Gallegos Nunez01:10:33FarmingtonNMFun Ride 47View
452136Nicole Lawson01:10:33Oro ValleyAZFun Ride 41View
462137Michelle Breen01:10:33Oro ValleyAZFun Ride 33View
472025Aleigha Milazzo01:10:34Oro ValleyAZFun Ride 34View
482063Noah Landreth01:10:37PhoenixAZFun Ride 12View
492108Sylvan Laroche01:10:40TucsonAZFun Ride 11View
502062Lucas Landreth01:10:44PhoenixAZFun Ride 42View
511051Ryan Trew01:10:53TucsonAZFun Ride 42View
522106Tanner Hunsaker01:11:17GlobeAZFun Ride 44View
532047Torsten Bishop01:11:26WaddellAZFun Ridevelo sonora7View
542048Hans Bishop01:11:32WaddellAZFun Ridevelo sonora48View
552049Scott Hornbeak01:12:20PhoenixAZFun Ride 48View
562028Olivia Lunsford01:13:05GilbertAZFun Ride 14View
572019Corbin Stalcup01:13:13MesaAZFun Ride 14View
582124Gavin Young01:13:21MesaAZFun Ride 18View
592003David Fuller01:13:36PhoenixAZFun RideDesert Snow Connection, RE/MAX Syndicate48View
602104Sutton Mallon01:13:38CampoCAFun Ride 13View
612105Jason Mallon01:13:42CampoCAFun Ride 46View
622118James Maloney01:14:27PinetopAZFun Ride 47View
632119John Maloney01:14:27PinetopAZFun Ride 10View
642054Heather Mcclain01:15:02PhoenixAZFun Ride 51View
651545Carlos López01:15:09GilbertAZFun Ride 45View
661544Craig Frazier01:15:17Queen CreekAZFun Ride 45View
672050Angela Hornbeak01:15:22PhoenixAZFun Ride 42View
682125Thomas Corris01:15:38SedonaAZFun RideSocial Security69View
691543Joshua Ellis01:15:39GilbertAZFun Ride 36View
702114Michael Wentz01:16:30PhoenixAZFun Ride 52View
712016Louise Strand01:16:40GilbertAZFun Ride 40View
722006Taylor Kelm01:16:44ScottsdaleAZFun RideJuggernaut32View
732015Kevin Strand01:16:44GilbertAZFun Ride 46View
742112Anthony Childers01:16:46MesaAZFun Ride 52View
752083Dewee Debusk01:18:06Sierra VistaAZFun RideMom & Dad52View
762035Zachary Hernandez01:18:08Queen CreekAZFun Ride 15View
772082Greg Debusk01:18:30Sierra VistaAZFun Ride 48View
782055Celeste Jacroux01:19:29PhoenixAZFun Ride 48View
79973Steve Speight01:20:57ChandlerAZFun Ride 69View
802090Wyatt Jankowiak01:21:12MesaAZFun RideTactical Fitness9View
812131Elaine Despearux01:21:17MesaAZWomen's Masters 52View
82587Teresa Clement01:25:54TucsonAZFun Ride 42View
832076Vincent Oland01:25:55PhoenixAZFun Ride 13View
84944Joelle Oland01:26:04PhoenixAZFun Ride 46View
852111Candi Aasen01:27:49BismarckNDFun Ride 45View
862102Sandy Aasen01:27:59ScottsdaleAZFun Ride 63View
872066Ella Dutton01:28:03Oro ValleyAZFun Ride 15View
882067Tom Dutton01:28:06Oro ValleyAZFun Ride 74View
892057Larry Zahn01:28:22PhoenixAZFun RideTIG3R1252View
902087Deanna Harrison01:29:03New Port Richey, FlFLFun Ride 60View
912009Edward Jahnke Iii01:29:33MaranaAZFun Ride 68View
922010Ann Jahnke01:29:33MaranaAZFun Ride 65View
932000Scott Sowinski01:32:42PhoenixAZFun Ride 40View
942001Owen Sowinski01:32:42PhoenixAZFun Ride 8View
952032Bob Novak01:33:51Pine ValleyCAFun Ride 64View
962116Dylan Pietruszynski01:33:53TucsonAZFun Ride 11View
972008Sadie Anderson01:35:27PhoenixAZFun Ride 10View
9841Egan Anderson01:35:35PhoenixAZFun Ride 50View
992007Brandi Anderson01:35:35PhoenixAZFun Ride 51View
1002045Angelica Castano01:37:28PhoenixAZFun Ride 42View
1012043Austin Trimaloff01:44:21PhoenixAZFun RideNone, not brave enough11View
1022036Jennifer Musil01:45:14ClarkdaleAZFun Ride 40View
1032037Cameron Musil01:45:23ClarkdaleAZFun Ride 7View
1042014Ashley Parker01:45:31PhoenixAZFun Ride 39View
1052088Melissa Randazzo01:49:10TempeAZFun Ride 45View
1062089Blake Randazzo01:49:14TempeAZFun Ride 12View
1072068Glen Cavalieri01:52:00GilbertAZFun Ride 48View
1082070Nicole Radd01:52:00GilbertAZFun Ride 49View
1092128Daniel Gibbs01:53:37Apache JunctionAZFun Ride 38View
1102129Gabriella Gibbs01:53:47Apache JunctionAZFun Ride 26View
1112080Owen Mcclain01:54:11TucsonAZFun Ride 10View
1122081Mark Mcclain01:54:12TucsonAZFun Ride 46View
1132069Dylan Warshauer01:56:48GilbertAZFun Ride 13View
1141604Kathleen Reyes01:56:54SahuaritaAZFun Ride 50View
1152021Joan Beckner01:58:20ChandlerAZFun Ride 46View
1162086Max Foley01:58:21ChandlerAZFun Ride 49View
1172051Starr Vinyard01:59:20PhoenixAZFun Ride 47View
1182042Liz Burkhardt01:59:31PhoenixAZFun RideNone, not brave enough48View
1192132Bill Witt02:02:34KingmanAZMen's Masters (45 & Over) 51View
1202115Corinna Pietruszynski02:13:53TucsonAZFun Ride 50View
1212117Miles Pietruszynski02:13:55TucsonAZFun Ride 7View
1222018Wayne Stalcup02:21:12MesaAZFun Ride 53View
1232072Gregory Marcell02:22:47GilbertAZFun RideOlympia Pool Services AZ53View
1242123James Boomer02:22:51SurpriseAZFun Ride 37View
1252071John Robert Marcell02:22:53GilbertAZFun RideOlympia Pool Services AZ12View
1261027Jeremy Bruns02:25:13PhoenixAZFun Ride 51View
1272078Kimberly Kolstad02:31:30GilbertAZFun RideHigh Country Adaptive Sports42View
1282135Dominic Corradin02:32:02  Fun Ride 42View
1292138Olivia Gerston02:32:04TempeAZFun Ride 23View
1302079Truman Shoaff02:38:27FlagstaffAZFun RideNorthern Arizona Adaptive Sports29View
1312103Jef Abramowitz02:38:34FlagstaffAZFun Ride 70View
132996Michael Holmes03:14:55AlbuquerqueNMFun Ride 44View
133502Jesse Head03:37:47ChandlerAZMen's Open 42View